FW8095 Weather Reports


Display with metric or nautical units.
time (UTC)temp
F
wind
direction
speed
MPH
gust
MPH
rain 1hr
in
rain 24hr
in
rain mn
in
humidity
%
barometer
mb
20260506211536 72 0 0.0 1.0 0.20 0.20 0.20 94 1012.9
20260506210035 72 0 0.0 0.0 0.16 0.16 0.16 92 1013.2
20260506204541 74 276 0.0 2.0 0.11 0.11 0.11 89 1013.1
20260506203039 75 0 0.0 2.0 0.00 0.00 0.00 85 1012.8
20260506201542 76 324 1.0 3.0 0.00 0.00 0.00 83 1013.3
20260506200037 77 316 0.0 3.0 0.00 0.00 0.00 82 1013.2
20260506194540 77 307 0.0 2.0 0.00 0.00 0.00 82 1013.7
20260506193038 77 0 0.0 1.0 0.00 0.00 0.00 81 1014.1
20260506191538 77 275 0.0 4.0 0.00 0.00 0.00 81 1014.1
20260506190036 77 0 0.0 2.0 0.00 0.00 0.00 80 1014.3
20260506184538 77 296 0.0 4.0 0.00 0.00 0.00 80 1014.4
20260506183039 78 302 0.0 2.0 0.00 0.00 0.00 80 1014.4
20260506181540 78 284 0.0 3.0 0.00 0.00 0.00 79 1014.5
20260506180040 78 141 0.0 3.0 0.00 0.00 0.00 78 1014.6
20260506174537 78 274 0.0 5.0 0.00 0.00 0.00 78 1014.7
20260506173041 78 271 1.0 5.0 0.00 0.00 0.00 76 1014.8
20260506171545 78 6 1.0 3.0 0.00 0.00 0.00 77 1014.7
20260506170043 77 295 1.0 4.0 0.00 0.00 0.00 77 1014.8
20260506164539 77 262 0.0 2.0 0.00 0.00 0.00 78 1014.9
20260506163038 78 327 1.0 4.0 0.00 0.00 0.00 74 1014.9
20260506161537 79 93 0.0 5.0 0.00 0.00 0.00 75 1014.8
20260506160039 78 311 0.0 3.0 0.00 0.00 0.00 77 1014.7
20260506154535 76 307 0.0 2.0 0.00 0.00 0.00 80 1014.7
20260506153039 76 0 0.0 3.0 0.00 0.00 0.00 78 1014.6
20260506151540 75 133 1.0 4.0 0.00 0.00 0.00 79 1014.7
20260506150035 75 271 0.0 4.0 0.00 0.00 0.00 80 1014.9
20260506144550 74 0 1.0 4.0 0.00 0.00 0.00 81 1015.1
20260506143039 74 319 1.0 8.0 0.00 0.00 0.00 81 1014.9
20260506141540 73 0 0.0 4.0 0.00 0.00 0.00 83 1015.0
20260506140037 72 241 0.0 3.0 0.00 0.00 0.00 86 1014.7
20260506134538 70 288 0.0 4.0 0.00 0.00 0.00 87 1015.0
20260506133035 69 146 0.0 4.0 0.00 0.00 0.00 88 1015.2
20260506131543 69 236 0.0 4.0 0.00 0.00 0.00 89 1015.4
20260506130037 68 257 0.0 4.0 0.00 0.00 0.00 89 1015.4
20260506124537 68 297 0.0 2.0 0.00 0.00 0.00 89 1015.3
20260506123036 67 322 0.0 2.0 0.00 0.00 0.00 89 1015.2
20260506121534 67 0 0.0 2.0 0.00 0.00 0.00 89 1014.9
20260506120039 67 281 0.0 1.0 0.00 0.00 0.00 89 1014.4
20260506114543 67 0 0.0 3.0 0.00 0.00 0.00 89 1014.2
20260506113038 66 257 0.0 2.0 0.00 0.00 0.00 89 1014.0
20260506111536 66 0 0.0 1.0 0.00 0.00 0.00 88 1014.0
20260506110042 66 291 0.0 1.0 0.00 0.00 0.00 88 1013.9
20260506104537 66 0 0.0 2.0 0.00 0.00 0.00 87 1013.6
20260506103039 66 0 0.0 3.0 0.00 0.00 0.00 87 1013.6
20260506101537 66 0 0.0 3.0 0.00 0.00 0.00 87 1013.5
20260506100039 66 0 0.0 1.0 0.00 0.00 0.00 86 1013.1
20260506094535 66 0 0.0 1.0 0.00 0.00 0.00 86 1013.1
20260506093032 66 0 0.0 2.0 0.00 0.00 0.00 86 1012.7
20260506091537 67 0 0.0 2.0 0.00 0.00 0.00 85 1012.6
20260506090036 67 274 0.0 2.0 0.00 0.00 0.00 85 1012.4
20260506084542 67 0 0.0 3.0 0.00 0.00 0.00 84 1012.2
20260506083034 67 0 0.0 4.0 0.00 0.00 0.00 84 1012.5
20260506081543 67 0 0.0 4.0 0.00 0.00 0.00 83 1012.6
20260506073037 68 0 0.0 2.0 0.00 0.00 0.00 81 1012.6
20260506071535 68 143 0.0 1.0 0.00 0.00 0.00 80 1012.7
20260506061538 69 0 0.0 1.0 0.00 0.00 0.00 78 1013.2
20260506044544 70 301 1.0 3.0 0.00 0.00 0.00 75 1013.2
20260506043038 70 252 1.0 3.0 0.00 0.00 0.00 75 1012.9
20260506041541 70 0 0.0 2.0 0.00 0.00 0.00 74 1013.2
20260506040039 70 244 0.0 4.0 0.00 0.00 0.00 74 1013.2
20260506034540 71 327 0.0 5.0 0.00 0.00 0.00 74 1013.2
20260506033036 71 248 0.0 3.0 0.00 0.00 0.00 73 1013.2
20260506031538 71 0 0.0 4.0 0.00 0.00 0.00 72 1013.2
20260506030055 70 289 0.0 0.0 0.00 0.00 0.00 71 1013.0
20260506024551 71 0 0.0 0.0 0.00 0.00 0.00 70 1012.8
20260506023035 70 0 0.0 0.0 0.00 0.00 0.00 70 1012.8
20260506021541 71 0 0.0 0.0 0.00 0.00 0.00 69 1012.6
20260506020039 71 0 0.0 0.0 0.00 0.00 0.00 69 1012.7
20260506014553 71 0 0.0 0.0 0.00 0.00 0.00 68 1012.4
20260506013036 71 0 0.0 0.0 0.00 0.00 0.00 67 1012.5
20260506011538 72 0 0.0 0.0 0.00 0.00 0.00 67 1012.9
20260506010049 72 0 0.0 0.0 0.00 0.00 0.00 67 1012.7
20260506004548 73 0 0.0 0.0 0.00 0.00 0.00 65 1012.4
20260506003042 73 0 0.0 0.0 0.00 0.00 0.00 64 1012.2
20260506001535 74 0 0.0 0.0 0.00 0.00 0.00 63 1012.5
20260506000041 74 0 0.0 0.0 0.00 0.00 0.00 63 1012.8
20260505234536 75 0 0.0 0.0 0.00 0.00 0.00 62 1012.7
20260505233035 75 0 0.0 3.0 0.00 0.00 0.00 61 1012.9
20260505231538 75 0 0.0 3.0 0.00 0.00 0.00 60 1012.9
20260505230044 75 311 0.0 2.0 0.00 0.00 0.00 60 1012.8
20260505224541 76 299 0.0 3.0 0.00 0.00 0.00 60 1013.1
20260505223041 76 0 0.0 3.0 0.00 0.00 0.00 59 1013.2
20260505221536 76 245 0.0 4.0 0.00 0.00 0.00 58 1013.0
20260505220041 76 240 0.0 5.0 0.00 0.00 0.00 59 1013.0
20260505214536 77 246 1.0 4.0 0.00 0.00 0.00 58 1013.1
20260505213046 77 343 1.0 6.0 0.00 0.00 0.00 58 1013.0